sat.trackr.live / text

‹ back to catalog

ICEYE-X63

NORAD 67372 · 2026-004K

PAYLOAD ACTIVE UNKNOWN

§ Identity

Operator
Country
FIN
Launch date
2026-01-11
Launch site
AFWTR
Launch vehicle
Mass (kg)
RCS (m²)

External: N2YO · Heavens-Above · Gunter

§ Orbital elements

Epoch: 2026-05-24T22:53:08.669184Z

Period
96.76 min
Inclination
97.7999°
Eccentricity
0.0003736
Mean motion
14.88250334 rev/d
Perigee alt
600.8 km
Apogee alt
606.0 km
Semi-major
6,981.5 km
B*
8.7846e-5
RAAN
143.9585°
Arg perigee
184.6622°
Mean anomaly
175.4561°
Rev number
1,984

§ Raw data

ICEYE-X631 67372U 26004K   26144.95357256  .00000757  00000+0  87846-4 0  99912 67372  97.7999 143.9585 0003736 184.6622 175.4561 14.88250334 19849

JSON: /api/v1/satellites/67372 · /tle

For live sub-satellite position, see the globe view (requires WebGL).

§ Visibility from observer

Set your observer location to see the next 7 days of passes ≥ 10°. The values pass through the URL so the page stays shareable.

No JS? Fill the form by hand. The geolocation button needs JavaScript.